[[{"header":{"parameterUnit":"m.s-1","parameterCategory":1,"la1":30.2992,"la2":30.254,"lo1":-89.0895,"lo2":-89.0443,"dy":0.0025,"dx":0.0025,"nx":19,"ny":19,"refTime":"2026-05-20T21:00:00:Z","depth":0,"parameterNumber":2,"parameterNumberName":"U-component_of_WINDS"},"data":[0,0,0,-0.967,-0.9671,-0.9718,-0.9718,-0.9787,-0.9788,0,0,0,0,0,0,0,0,0,0,0,-0.966,-0.966,-0.967,-0.9671,-0.9718,-0.9718,-0.9787,-0.9788,0,0,0,0,0,0,0,0,0,0,0,-0.9659,-0.966,-0.9661,-0.9672,-0.9718,-0.9718,-0.9787,-0.9749,0,0,0,0,0,0,0,0,0,0,-0.9702,-0.9695,-0.966,-0.9661,-0.9672,-0.9718,-0.9718,-0.9747,-0.9751,-0.9769,0,-0.9784,0,-0.9787,-0.9793,-0.9793,0,0,0,-0.967,-0.9691,-0.9701,-0.9661,-0.9672,-0.9718,-0.9696,-0.9749,-0.9754,-0.9775,-0.9785,-0.9787,-0.9788,-0.9793,-0.9793,-0.9898,-0.9899,0,0,-0.9667,-0.967,-0.9697,-0.9704,-0.9695,-0.9695,-0.9698,-0.9752,-0.9764,-0.9785,-0.9788,-0.9789,-0.9794,-0.9794,-0.9898,-0.9898,0,0,0,-0.9661,-0.9669,-0.9676,-0.9701,-0.9709,-0.9696,-0.97,-0.9761,-0.9764,-0.9789,-0.979,-0.9794,-0.9795,-0.9897,-0.9898,-0.9929,0,0,0,-0.9659,-0.9665,-0.9675,-0.9678,-0.9708,-0.9735,-0.9708,-0.976,-0.9766,-0.9789,-0.9794,-0.9796,-0.9896,-0.9897,-0.9927,-0.9944,0,0,0,-0.9656,-0.9664,-0.9672,-0.9678,-0.9698,-0.9734,-0.974,-0.9761,-0.9766,-0.9793,-0.9796,-0.9896,-0.9897,-0.9925,-0.9941,-0.9973,0,0,0,-0.9653,-0.97,-0.9673,-0.9725,-0.9698,-0.9753,-0.9739,-0.978,-0.9807,-0.9794,-0.9896,-0.9898,-0.9924,-0.9939,-0.9971,-1.0002,-1.0014,0,0,-0.9714,-0.9707,-0.9738,-0.9715,-0.9775,-0.9745,-0.9811,-0.9833,-0.9834,-0.9877,-0.988,-0.9928,-0.9941,-0.9973,-1.0083,-1.0093,0,0,0,-0.9759,-0.9781,-0.9796,-0.9821,-0.9837,-0.9854,-0.9865,-0.9874,-0.991,-0.9856,-0.9948,-0.9955,-0.9974,-0.9989,-0.9997,-1.0014,-0.9904,-0.9904,-0.9904,-0.985,-0.9847,-0.9898,-0.9901,-0.9925,-0.9936,-0.9956,-0.997,-0.996,-0.9982,-0.9996,-1.0062,-1.0079,-1.0086,-1.0103,-1.0011,-1.0011,-1.0011,-1.0011,-0.994,-0.9972,-0.9957,-1.0002,-0.9999,-1.0037,-1.005,-1.0043,-1.0079,-1.0052,-1.0068,-1.004,-1.0097,-1.0112,-1.0013,-1.0013,-1.0013,-1.0012,-1.0012,-1.0001,-1.0016,-1.0024,-1.0059,-1.0088,-1.0089,-1.0125,-1.0121,-1.0118,-1.0135,-1.0149,-1.0149,-1.0149,-1.0142,-1.0142,-1.0142,-1.0142,-1.0142,-1.0143,-1.0061,-1.0069,-1.0099,-1.012,-1.0136,-1.0157,-1.0169,-1.0185,-1.0202,-1.0197,-1.0197,-1.0187,-1.0102,-1.0082,-1.0146,-1.0145,-1.0145,-1.0145,-1.0144,-1.0156,-1.0134,-1.0179,-1.0194,-1.0221,-1.025,-1.0244,-1.0278,-1.029,-1.0309,-1.0294,-1.0232,-1.0226,-1.0219,-1.0202,-1.0294,-1.0294,-1.0294,-1.0294,-1.0208,-1.0204,-1.0249,-1.0275,-1.0299,-1.0299,-1.0353,-1.0363,-1.0371,-1.038,-1.0366,-1.0343,-1.0336,-1.0333,-1.0324,-1.0308,-1.0425,-1.0425,-1.0425,-1.0267,-1.0265,-1.031,-1.0315,-1.0335,-1.0354,-1.0405,-1.0437,-1.0441,-1.0431,-1.0386,-1.0381,-1.0344,-1.0331,-1.0321,-1.0307,-1.0278,0,0]},{"header":{"parameterUnit":"m.s-1","parameterCategory":1,"la1":30.2992,"la2":30.254,"lo1":-89.0895,"lo2":-89.0443,"dy":0.0025,"dx":0.0025,"nx":19,"ny":19,"refTime":"2026-05-20T21:00:00:Z","depth":0,"parameterNumber":3,"parameterNumberName":"V-component_of_WINDS"},"data":[0,0,0,2.4136,2.4136,2.4155,2.4155,2.4187,2.4187,0,0,0,0,0,0,0,0,0,0,0,2.4134,2.4135,2.4136,2.4136,2.4155,2.4155,2.4187,2.4187,0,0,0,0,0,0,0,0,0,0,0,2.4134,2.4135,2.4135,2.4136,2.4155,2.4155,2.4186,2.417,0,0,0,0,0,0,0,0,0,0,2.415,2.4153,2.4134,2.4135,2.4136,2.4155,2.4155,2.4169,2.4171,2.4181,0,2.4191,0,2.419,2.419,2.419,0,0,0,2.4133,2.4151,2.4153,2.4135,2.4137,2.4155,2.4146,2.417,2.4172,2.4184,2.4192,2.4193,2.419,2.419,2.419,2.426,2.426,0,0,2.4132,2.414,2.4151,2.4154,2.4151,2.4145,2.4146,2.4171,2.418,2.4192,2.4193,2.4191,2.419,2.419,2.4259,2.426,0,0,0,2.4131,2.4139,2.414,2.4153,2.4156,2.4146,2.4147,2.4179,2.4178,2.4194,2.4191,2.419,2.4191,2.4259,2.426,2.4289,0,0,0,2.4131,2.4139,2.414,2.4144,2.4155,2.4167,2.4154,2.4177,2.4179,2.4191,2.419,2.4191,2.4258,2.4259,2.4287,2.4301,0,0,0,2.4132,2.4139,2.4143,2.4145,2.4153,2.4167,2.4168,2.4177,2.4178,2.419,2.4191,2.4258,2.4259,2.4285,2.4298,2.4321,0,0,0,2.4135,2.4168,2.4143,2.418,2.4153,2.4185,2.4167,2.4191,2.4205,2.419,2.4258,2.426,2.4284,2.4296,2.4319,2.4341,2.4351,0,0,2.4181,2.4174,2.4195,2.4173,2.4212,2.4181,2.4225,2.423,2.4225,2.4249,2.425,2.4287,2.4298,2.4321,2.4406,2.4414,0,0,0,2.4212,2.4227,2.4236,2.4249,2.4255,2.4261,2.4259,2.4262,2.4281,2.4239,2.4302,2.4308,2.4321,2.4331,2.4338,2.4349,2.4265,2.4265,2.4265,2.4287,2.4279,2.4313,2.4307,2.4321,2.432,2.433,2.4334,2.4321,2.4337,2.4343,2.4396,2.4408,2.4413,2.4424,2.4355,2.4355,2.4355,2.4355,2.4352,2.4372,2.4357,2.4384,2.4376,2.4399,2.4401,2.4392,2.4413,2.439,2.4401,2.4376,2.4422,2.4431,2.4358,2.4357,2.4357,2.4357,2.4357,2.4399,2.4407,2.441,2.4429,2.4445,2.444,2.4461,2.4453,2.4446,2.4458,2.4464,2.4463,2.4461,2.4461,2.4462,2.4462,2.4462,2.4462,2.4462,2.4445,2.4447,2.4465,2.4476,2.4484,2.4494,2.4496,2.4504,2.4511,2.4504,2.4504,2.4491,2.4428,2.4412,2.4465,2.4465,2.4464,2.4464,2.4464,2.4511,2.4495,2.4523,2.4532,2.4544,2.4562,2.4553,2.4571,2.4577,2.4588,2.4574,2.4529,2.4521,2.4516,2.4502,2.4575,2.4575,2.4575,2.4575,2.4549,2.4545,2.4573,2.4587,2.4601,2.4596,2.463,2.4633,2.4633,2.4637,2.4626,2.4608,2.4603,2.4598,2.4591,2.4578,2.4669,2.4669,2.4669,2.4589,2.4587,2.4615,2.4615,2.4625,2.4634,2.4666,2.4685,2.4682,2.4673,2.464,2.4636,2.4607,2.4598,2.4585,2.4574,2.455,0,0]}]]